THORAD AGENA D DEB, 4654

Orbit data source: Space-Track

THORAD AGENA D DEB, 4654 is space debris in SSO originally from a launch on Wed, 08 Apr 1970 UTC launched from the Air Force Western Test Range (AFWTR). Debris objects in space refer to the collection of defunct objects orbiting the Earth. Examples of debris include non-operational satellites, rocket bodies, and fragments generated from explosions, collisions, or faulty payload assembly.

Loading next visibility...
Identifier
4654, 1970-025AN
Orbit
SSO
Country
Flag of USUS
Related business
Manufacturer
Unknown
Mission
Spacecraft
Bus & Motor
Unknown
Mass
Unknown
Launch date (UTC)
1970-04-08 (56 years ago)
Launch vehicle
Unknown
Launch site
Air Force Western Test Range (AFWTR)
Object type
Payload
Rocket body
Debris
Shape & HBR
Unknown shape, 0.1 m
Radar Cross Section
Small (<0.1 m²)

Expand to show TLE details & history
Last TLE update: 12 hours ago

TLE from 12 hours ago
0 THORAD AGENA D DEB
1 04654U 70025AN  26036.97896988  .00003901  00000-0  19945-2 0  9997
2 04654 100.0194 193.5446 0025310  76.3077 284.0909 14.16097994821361
Epoch: 2026-02-05T23:29Z
TLE epoch observation values (Epoch: 2026-02-05T23:29:42.997Z)
Latitude
0.00001°
Longitude
64.99201°
Altitude
837.039 km
Speed
7.437 km/s
True Right ascension
12h 54m 10s
True Declination
0° 00' 00"
Sunlit
Object was in full shadow at epoch
Visualization orbit readout
Latitude
Unknown
Longitude
Unknown
Altitude
Unknown
Speed
Unknown
Apparent Right ascension
Unknown
Apparent Declination
Unknown
Sunlit
N/A
Visualization observer readout
Local Sidereal Time
13:54:09
Azimuth
Unknown
Elevation
Unknown
Doppler factor
Unknown
Orbital elements
Apogee altitude
854.069 km
Perigee altitude
817.552 km
Semi-major axis
7,213.947 km
Eccentricity
0.00253
Inclination
100.0194°
RAAN
193.5446°
Arg. of periapsis
76.3077°
True anomaly
283.80938°
Mean anomaly
284.0909°
Eccentric anomaly
283.95016°
Mean motion
3.54229 °/min
Orbital period
101.63 mins
BSTAR
0.0019945
Loading maneuver chart data...
Computing Atmospheric mass density...

Documentation

Showing up to 5 results
|